Nadi, Fiji

9:08 AM +12 on March 26, 2017 (GMT +1200)
Nadi International

Weather History for NFFN - January, 2013

Change the Weather History Date:

Monday, January 14, 2013

  Actual Average Record
Temperature  
Mean Temperature 82 °F -  
Max Temperature 87 °F 86 °F 102 °F (2001)
Min Temperature 76 °F 73 °F 71 °F (2006)
Cooling Degree Days 16    
Growing Degree Days 32 (Base 50)    
Moisture  
Dew Point 77 °F    
Average Humidity 85    
Maximum Humidity 100    
Minimum Humidity 60    
Precipitation  
Precipitation 0.20 in 0.40 in - ()
Sea Level Pressure  
Sea Level Pressure 29.62 in    
Wind  
Wind Speed 4 mph ()    
Max Wind Speed 14 mph    
Max Gust Speed -    
Visibility 15.3 miles    
Events Rain , Thunderstorm    
Averages and records for this station are not official NWS values.
T = Trace of Precipitation, MM = Missing Value Source: Averaged Metar Reports

Daily Weather History Graph

Daily Weather History Graph

Search for Another Location

Airport or City:

Trip Planner

Search our weather history database for the weather conditions in past years. The results will help you decide how hot, cold, wet, or windy it might be!

Date:

Astronomy

Jan. 14, 2013 Rise Set
Actual Time 6:46 AM +13 7:51 PM +13
Civil Twilight 6:22 AM +13 8:15 PM +13
Nautical Twilight 5:54 AM +13 8:43 PM +13
Astronomical Twilight 5:25 AM +13 9:12 PM +13
Moon 8:52 AM +13 (1/14) 9:39 PM +13 (1/14)
Length of Visible Light 13h 52m
Length of Day
13h 05m
Waxing Crescent, 6% of the Moon is Illuminated
Jan 14
Waxing Crescent
Jan 19
First Quarter
Jan 27
Full
Feb 4
Last Quarter
Feb 10
New

Hourly Weather History & Observations

Time (+13) Temp. Heat Index Dew Point Humidity Pressure Visibility Wind Dir Wind Speed Gust Speed Precip Events Conditions
12:00 AM 78.8 °F - 77.0 °F 94% 29.65 in 24.9 mi SSE 5.8 mph - N/A   Partly Cloudy
1:00 AM 78 °F - 77 °F 97% 29.67 in 12 mi Calm Calm - -   Partly Cloudy
1:00 AM 78.8 °F - 77.0 °F 94% 29.65 in 24.9 mi Calm Calm - N/A   Partly Cloudy
2:00 AM 77.0 °F - 77.0 °F 100% 29.62 in 24.9 mi Calm Calm - N/A   Partly Cloudy
3:00 AM 77.0 °F - 77.0 °F 100% 29.62 in 24.9 mi Calm Calm - N/A   Partly Cloudy
4:00 AM 77 °F - 76 °F 95% 29.62 in 12 mi ESE 2.3 mph - -   Scattered Clouds
4:00 AM 77.0 °F - 75.2 °F 94% 29.62 in 24.9 mi ESE 2.3 mph - N/A   Scattered Clouds
5:00 AM 77.0 °F - 75.2 °F 94% 29.62 in 24.9 mi Calm Calm - N/A   Scattered Clouds
6:00 AM 77.0 °F - 75.2 °F 94% 29.62 in 24.9 mi ESE 4.6 mph - N/A   Scattered Clouds
7:00 AM 76 °F - 76 °F 99% 29.65 in 31 mi Calm Calm - -   Partly Cloudy
7:00 AM 77.0 °F - 75.2 °F 94% 29.62 in 31.1 mi Calm Calm - N/A   Scattered Clouds
8:00 AM 78.8 °F - 77.0 °F 94% 29.62 in 31.1 mi Calm Calm - N/A   Scattered Clouds
9:00 AM 82.4 °F 90.9 °F 77.0 °F 84% 29.62 in 31.1 mi SSE 3.5 mph - N/A   Scattered Clouds
10:00 AM 86 °F - 78 °F 71% 29.66 in 31 mi Calm Calm - -   Partly Cloudy
10:00 AM 86.0 °F 99.3 °F 78.8 °F 79% 29.65 in 31.1 mi Calm Calm - N/A   Partly Cloudy
11:00 AM 86.0 °F 99.3 °F 78.8 °F 79% 29.62 in 31.1 mi West 8.1 mph - N/A   Scattered Clouds
12:00 PM 86.0 °F 96.9 °F 77.0 °F 74% 29.62 in 31.1 mi West 9.2 mph - N/A   Scattered Clouds
1:00 PM 86 °F - 80 °F 76% 29.62 in 31 mi WNW 9.2 mph - -   Partly Cloudy
1:00 PM 86.0 °F 99.3 °F 78.8 °F 79% 29.62 in 31.1 mi WNW 9.2 mph - N/A   Scattered Clouds
2:00 PM 86.0 °F 99.3 °F 78.8 °F 79% 29.59 in 31.1 mi West 11.5 mph - N/A   Scattered Clouds
3:00 PM 87.8 °F 104.9 °F 80.6 °F 79% 29.59 in 31.1 mi West 13.8 mph - N/A   Scattered Clouds
3:40 PM 86.0 °F 99.3 °F 78.8 °F 79% 29.59 in 31.1 mi WNW 6.9 mph - N/A Thunderstorm Thunderstorm
4:00 PM 87 °F - 78 °F 68% 29.60 in 31 mi WNW 12.7 mph - - Thunderstorm Thunderstorm
4:00 PM 87.8 °F 102.5 °F 78.8 °F 75% 29.59 in 31.1 mi WNW 12.7 mph - N/A Thunderstorm Thunderstorm
4:40 PM 86.0 °F 99.3 °F 78.8 °F 79% 29.59 in 31.1 mi WNW 6.9 mph - N/A Thunderstorm Thunderstorm
5:00 PM 86.0 °F 99.3 °F 78.8 °F 79% 29.56 in 31.1 mi WNW 9.2 mph - N/A   Scattered Clouds
6:00 PM 86.0 °F 99.3 °F 78.8 °F 79% 29.59 in 31.1 mi Calm Calm - N/A   Scattered Clouds
7:00 PM 87 °F - 75 °F 60% 29.61 in 31 mi WSW 4.6 mph - -   Partly Cloudy
7:00 PM 87.8 °F 97.6 °F 75.2 °F 66% 29.59 in 31.1 mi WSW 4.6 mph - N/A   Scattered Clouds
8:00 PM 84.2 °F 94.1 °F 77.0 °F 79% 29.62 in 28.0 mi South 9.2 mph - N/A   Mostly Cloudy
8:15 PM 84.2 °F 94.1 °F 77.0 °F 79% 29.65 in 18.6 mi SE 8.1 mph - N/A Rain , Thunderstorm Thunderstorms and Rain
9:00 PM 78.8 °F - 77.0 °F 94% 29.65 in 18.6 mi SSE 5.8 mph - N/A Rain Light Rain
10:00 PM 78.8 °F - 77.0 °F 94% 29.62 in 24.9 mi SE 4.6 mph - N/A   Scattered Clouds
11:00 PM 77.0 °F - 75.2 °F 94% 29.65 in 24.9 mi Calm Calm - N/A   Scattered Clouds